Location: Newark
(20.0000°S, 47.0000°E)
Time: 11:50:59
(UTC+00:00)

N. Korean satellite - Pass Details

Date: 23 August 2020
Orbit: 455 x 503 km, 97.2° (Epoch: 20 September)

Event Time Altitude Azimuth Distance (km) Brightness Sun altitude
Rises 02:45:02 0° 335° (NNW) 2,582 10.1 -6.1°
Reaches altitude 10° 02:47:59 10° 308° (NW) 1,709 8.9 -5.4°
Maximum altitude 02:49:53 14° 277° (W) 1,498 8.4 -4.9°
Drops below altitude 10° 02:51:48 10° 245° (WSW) 1,718 8.7 -4.5°
Sets 02:54:48 0° 218° (SW) 2,606 9.8 -3.8°
